Location: ???? ??
(36.0534°N, 43.5630°E)
Time: 03:15:51
(UTC+00:00)

Cosmos 1140 Rocket - Pass Details

Date: 18 September 2019
Orbit: 745 x 767 km, 74.1° (Epoch: 19 October)

Event Time Altitude Azimuth Distance (km) Brightness Sun altitude
Rises 17:01:00 0° 350° (N) 3,214 7.1 -22.9°
Reaches altitude 10° 17:03:31 10° 358° (N) 2,282 6.2 -23.4°
Enters shadow 17:07:26 37° 41° (NE) 1,157 4.2 -24.1°
